Weather History for Crookston, MN

Change the Weather History Date:

Wednesday, July 3, 2013

  Actual Average Record
Temperature  
Mean Temperature 74 °F -  
Max Temperature 86 °F 73 °F 89 °F (2010)
Min Temperature 62 °F 53 °F 35 °F (2005)
Cooling Degree Days 9    
Growing Degree Days 24 (Base 50)    
Moisture  
Dew Point 59 °F    
Average Humidity 63    
Maximum Humidity 94    
Minimum Humidity 33    
Precipitation  
Precipitation 0.00 in - - ()
Sea Level Pressure  
Sea Level Pressure 29.96 in    
Wind  
Wind Speed 6 mph (South)    
Max Wind Speed 14 mph    
Max Gust Speed 16 mph    
Visibility 10 miles    
Events      
Averages and records for this station are not official NWS values.
T = Trace of Precipitation, MM = Missing Value Source: NWS Daily Summary

Daily Weather History Graph

Daily Weather History Graph

Search for Another Location

Airport:

Trip Planner

Search our weather history database for the weather conditions in past years. The results will help you decide how hot, cold, wet, or windy it might be!

Date:

Astronomy

Jul. 03, 2013 Rise Set
Actual Time 5:33 AM CDT 9:28 PM CDT
Civil Twilight 4:52 AM CDT 10:08 PM CDT
Nautical Twilight 3:56 AM CDT 11:04 PM CDT
Astronomical Twilight 2:29 AM CDT 12:30 AM CDT
Moon 2:21 AM CDT (7/3) 5:32 PM CDT (7/3)
Length of Visible Light 17h 15m
Length of Day
15h 54m
Waning Crescent, 18% of the Moon is Illuminated
Jul 3
Waning Crescent
Jul 8
New
Jul 15
First Quarter
Jul 22
Full
Jul 29
Last Quarter

Hourly Weather History & Observations

Time (CDT) Temp. Heat Index Dew Point Humidity Pressure Visibility Wind Dir Wind Speed Gust Speed Precip Events Conditions
12:14 AM 66.2 °F - 62.6 °F 88% 30.03 in 10.0 mi South 3.5 mph - N/A   Scattered Clouds
12:35 AM 64.4 °F - 60.8 °F 88% 30.03 in 10.0 mi SSE 6.9 mph - N/A   Clear
12:54 AM 64.4 °F - 60.8 °F 88% 30.04 in 10.0 mi SSE 5.8 mph - N/A   Clear
1:14 AM 64.4 °F - 60.8 °F 88% 30.03 in 10.0 mi SSE 5.8 mph - N/A   Clear
1:35 AM 64.4 °F - 60.8 °F 88% 30.03 in 10.0 mi SSE 5.8 mph - N/A   Scattered Clouds
1:54 AM 62.6 °F - 60.8 °F 94% 30.03 in 10.0 mi SSE 5.8 mph - N/A   Scattered Clouds
2:15 AM 64.4 °F - 60.8 °F 88% 30.03 in 10.0 mi Calm Calm - N/A   Scattered Clouds
2:35 AM 62.6 °F - 60.8 °F 94% 30.02 in 10.0 mi South 3.5 mph - N/A   Scattered Clouds
2:54 AM 64.4 °F - 60.8 °F 88% 30.02 in 10.0 mi South 3.5 mph - N/A   Scattered Clouds
3:15 AM 64.4 °F - 60.8 °F 88% 30.02 in 10.0 mi Calm Calm - N/A   Mostly Cloudy
3:35 AM 64.4 °F - 60.8 °F 88% 30.02 in 10.0 mi SSE 4.6 mph - N/A   Mostly Cloudy
3:54 AM 64.4 °F - 60.8 °F 88% 30.02 in 10.0 mi SSE 4.6 mph - N/A   Scattered Clouds
4:15 AM 64.4 °F - 60.8 °F 88% 30.01 in 10.0 mi SE 3.5 mph - N/A   Clear
4:35 AM 64.4 °F - 59.0 °F 83% 30.01 in 10.0 mi SSE 4.6 mph - N/A   Clear
4:54 AM 62.6 °F - 59.0 °F 88% 30.01 in 10.0 mi SE 6.9 mph - N/A   Scattered Clouds
5:15 AM 62.6 °F - 60.8 °F 94% 30.01 in 10.0 mi SSE 5.8 mph - N/A   Scattered Clouds
5:35 AM 62.6 °F - 60.8 °F 94% 30.01 in 10.0 mi SSE 6.9 mph - N/A   Scattered Clouds
5:54 AM 62.6 °F - 60.8 °F 94% 30.01 in 10.0 mi SSE 6.9 mph - N/A   Clear
6:15 AM 62.6 °F - 60.8 °F 94% 30.01 in 7.0 mi SSE 6.9 mph - N/A   Clear
6:35 AM 62.6 °F - 59.0 °F 88% 30.02 in 7.0 mi SSE 6.9 mph - N/A   Clear
6:54 AM 62.6 °F - 60.8 °F 94% 30.02 in 10.0 mi SSE 3.5 mph - N/A   Clear
7:15 AM 66.2 °F - 60.8 °F 83% 30.02 in 10.0 mi Calm Calm - N/A   Scattered Clouds
7:35 AM 68.0 °F - 60.8 °F 78% 30.02 in 10.0 mi Calm Calm - N/A   Mostly Cloudy
7:54 AM 69.8 °F - 60.8 °F 73% 30.02 in 10.0 mi South 4.6 mph - N/A   Mostly Cloudy
8:15 AM 71.6 °F - 60.8 °F 69% 30.02 in 10.0 mi South 6.9 mph - N/A   Scattered Clouds
8:34 AM 71.6 °F - 60.8 °F 69% 30.02 in 10.0 mi South 5.8 mph - N/A   Mostly Cloudy
8:54 AM 71.6 °F - 62.6 °F 73% 30.01 in 10.0 mi South 4.6 mph - N/A   Mostly Cloudy
9:15 AM 73.4 °F - 62.6 °F 69% 30.01 in 10.0 mi South 4.6 mph - N/A   Scattered Clouds
9:34 AM 75.2 °F - 60.8 °F 61% 30.01 in 10.0 mi South 4.6 mph - N/A   Clear
9:54 AM 77.0 °F - 62.6 °F 61% 30.01 in 10.0 mi South 4.6 mph - N/A   Scattered Clouds
10:15 AM 78.8 °F - 62.6 °F 57% 30.00 in 10.0 mi South 4.6 mph - N/A   Scattered Clouds
10:34 AM 78.8 °F - 62.6 °F 57% 29.99 in 10.0 mi South 6.9 mph - N/A   Clear
10:54 AM 80.6 °F 81.5 °F 60.8 °F 51% 29.99 in 10.0 mi SSW 6.9 mph - N/A   Clear
11:15 AM 80.6 °F 81.5 °F 60.8 °F 51% 29.99 in 10.0 mi SSW 5.8 mph - N/A   Clear
11:34 AM 82.4 °F 82.9 °F 60.8 °F 48% 29.98 in 10.0 mi SSW 6.9 mph - N/A   Clear
11:55 AM 82.4 °F 82.9 °F 60.8 °F 48% 29.98 in 10.0 mi South 5.8 mph - N/A   Clear
12:15 PM 82.4 °F 82.5 °F 59.0 °F 45% 29.97 in 10.0 mi South 6.9 mph - N/A   Clear
12:34 PM 82.4 °F 82.5 °F 59.0 °F 45% 29.97 in 10.0 mi SSW 8.1 mph - N/A   Clear
12:55 PM 84.2 °F 83.5 °F 57.2 °F 40% 29.97 in 7.0 mi SSW 8.1 mph - N/A   Clear
1:15 PM 84.2 °F 84.4 °F 60.8 °F 45% 29.96 in 10.0 mi SSW 6.9 mph - N/A   Clear
1:34 PM 84.2 °F 83.5 °F 57.2 °F 40% 29.95 in 10.0 mi South 8.1 mph - N/A   Clear
1:55 PM 84.2 °F 83.0 °F 55.4 °F 37% 29.95 in 10.0 mi South 9.2 mph - N/A   Clear
2:15 PM 84.2 °F 83.5 °F 57.2 °F 40% 29.95 in 10.0 mi South 10.4 mph - N/A   Clear
2:34 PM 86.0 °F 84.5 °F 55.4 °F 35% 29.95 in 10.0 mi SSW 9.2 mph - N/A   Clear
2:55 PM 86.0 °F 84.5 °F 55.4 °F 35% 29.95 in 10.0 mi South 11.5 mph - N/A   Clear
3:15 PM 86.0 °F 84.2 °F 53.6 °F 33% 29.94 in 10.0 mi SSW 6.9 mph - N/A   Clear
3:34 PM 86.0 °F 84.5 °F 55.4 °F 35% 29.94 in 10.0 mi South 6.9 mph - N/A   Clear
3:54 PM 86.0 °F 84.5 °F 55.4 °F 35% 29.93 in 10.0 mi South 10.4 mph - N/A   Clear
4:15 PM 82.4 °F 82.0 °F 57.2 °F 42% 29.93 in 10.0 mi SSW 9.2 mph - N/A   Clear
4:34 PM 84.2 °F 83.5 °F 57.2 °F 40% 29.92 in 10.0 mi South 8.1 mph - N/A   Scattered Clouds
4:55 PM 86.0 °F 84.9 °F 57.2 °F 37% 29.92 in 10.0 mi SSW 9.2 mph - N/A   Clear
5:14 PM 86.0 °F 84.9 °F 57.2 °F 37% 29.91 in 10.0 mi SSW 9.2 mph 16.1 mph N/A   Clear
5:34 PM 84.2 °F 83.5 °F 57.2 °F 40% 29.91 in 10.0 mi SSW 9.2 mph - N/A   Clear
5:55 PM 84.2 °F 83.5 °F 57.2 °F 40% 29.90 in 10.0 mi South 11.5 mph - N/A   Clear
6:14 PM 84.2 °F 83.5 °F 57.2 °F 40% 29.89 in 10.0 mi South 11.5 mph - N/A   Clear
6:34 PM 84.2 °F 83.5 °F 57.2 °F 40% 29.89 in 10.0 mi South 13.8 mph - N/A   Clear
6:55 PM 84.2 °F 83.5 °F 57.2 °F 40% 29.89 in 10.0 mi SSW 11.5 mph - N/A   Clear
7:14 PM 82.4 °F 82.0 °F 57.2 °F 42% 29.88 in 10.0 mi SSW 10.4 mph - N/A   Clear
7:34 PM 82.4 °F 82.5 °F 59.0 °F 45% 29.88 in 10.0 mi South 6.9 mph - N/A   Clear
7:55 PM 80.6 °F 80.8 °F 57.2 °F 45% 29.87 in 10.0 mi South 8.1 mph - N/A   Clear
8:14 PM 80.6 °F 81.5 °F 60.8 °F 51% 29.87 in 10.0 mi South 6.9 mph - N/A   Clear
8:35 PM 78.8 °F - 60.8 °F 54% 29.87 in 10.0 mi South 8.1 mph - N/A   Clear
8:55 PM 77.0 °F - 60.8 °F 57% 29.87 in 10.0 mi South 6.9 mph - N/A   Clear
9:14 PM 77.0 °F - 60.8 °F 57% 29.87 in 10.0 mi South 8.1 mph - N/A   Clear
9:35 PM 75.2 °F - 60.8 °F 61% 29.87 in 10.0 mi South 8.1 mph - N/A   Clear
9:54 PM 71.6 °F - 60.8 °F 69% 29.87 in 10.0 mi SSE 6.9 mph - N/A   Clear
10:14 PM 71.6 °F - 60.8 °F 69% 29.87 in 10.0 mi South 6.9 mph - N/A   Clear
10:35 PM 69.8 °F - 60.8 °F 73% 29.87 in 10.0 mi South 6.9 mph - N/A   Clear
10:54 PM 71.6 °F - 59.0 °F 64% 29.87 in 10.0 mi South 10.4 mph - N/A   Clear
11:14 PM 71.6 °F - 59.0 °F 64% 29.86 in 10.0 mi South 9.2 mph - N/A   Clear
11:35 PM 71.6 °F - 59.0 °F 64% 29.86 in 10.0 mi South 10.4 mph - N/A   Clear
11:54 PM 71.6 °F - 57.2 °F 60% 29.86 in 10.0 mi South 9.2 mph - N/A   Clear